Location: Unspecified
(48.3300°N, 0.0000°E)
Time: 04:19:05
(UTC+00:00)

Envisat - Visible Passes

Search period start: 16 October 2019 00:00
Search period end: 26 October 2019 00:00
Orbit: 764 x 766 km, 98.1° (Epoch: 15 October)

Date Brightness Start Highest point End Pass type
(mag) Time Alt. Az. Time Alt. Az. Time Alt. Az.
16 Oct 6.7 05:26:00 10° ENE 05:27:24 11° E 05:28:46 10° E visible
16 Oct 3.7 18:20:28 10° S 18:25:28 57° W 18:30:30 10° NNW visible
17 Oct 3.0 17:43:38 10° SSE 17:48:40 71° ENE 17:53:45 10° N visible
17 Oct 5.8 19:24:56 10° SW 19:28:14 17° W 19:31:33 10° NW visible
18 Oct 6.1 05:49:42 10° NE 05:53:16 19° E 05:56:49 10° SE visible
18 Oct 4.7 18:46:30 10° SSW 18:51:06 34° W 18:55:45 10° NNW visible
19 Oct 3.3 18:09:07 10° S 18:14:10 71° WSW 18:19:17 10° NNW visible
20 Oct 3.1 17:32:28 10° SSE 17:37:26 58° ENE 17:42:26 10° N visible
20 Oct 5.5 19:13:01 10° SW 19:16:50 21° W 19:20:41 10° NW visible
21 Oct 6.2 05:38:55 10° NE 05:41:52 15° E 05:44:47 10° ESE visible
21 Oct 4.3 18:34:57 10° S 18:39:46 42° W 18:44:37 10° NNW visible
22 Oct 3.0 17:57:49 10° SSE 18:02:53 87° WSW 18:08:01 10° NNW visible
22 Oct 6.1 19:40:31 10° WSW 19:42:41 13° W 19:44:52 10° WNW visible
23 Oct 3.3 17:21:23 10° SE 17:26:13 47° ENE 17:31:06 10° N visible
23 Oct 5.2 19:01:15 10° SSW 19:05:28 26° W 19:09:43 10° NW visible
24 Oct 6.4 05:28:28 10° ENE 05:30:26 12° E 05:32:24 10° ESE visible
24 Oct 3.9 18:23:30 10° S 18:28:28 53° W 18:33:26 10° NNW visible
25 Oct 2.9 17:46:34 10° SSE 17:51:38 77° ENE 17:56:44 10° N visible
25 Oct 5.9 19:28:13 10° SW 19:31:16 16° W 19:34:19 10° NW visible
